Weather History for Kingstree, SC

Change the Weather History Date:

Tuesday, August 26, 2014

  Actual Average Record
Temperature  
Mean Temperature 77 °F -  
Max Temperature 86 °F 88 °F 89 °F (2010)
Min Temperature 68 °F 65 °F 62 °F (2012)
Cooling Degree Days 12    
Growing Degree Days 27 (Base 50)    
Moisture  
Dew Point 64 °F    
Average Humidity 68    
Maximum Humidity 88    
Minimum Humidity 35    
Precipitation  
Precipitation 0.27 in - - ()
Sea Level Pressure  
Sea Level Pressure 30.06 in    
Wind  
Wind Speed 4 mph (NNE)    
Max Wind Speed 8 mph    
Max Gust Speed -    
Visibility 10 miles    
Events      
Averages and records for this station are not official NWS values.
T = Trace of Precipitation, MM = Missing Value Source: NWS Daily Summary

Daily Weather History Graph

Daily Weather History Graph

Search for Another Location

Airport:

Trip Planner

Search our weather history database for the weather conditions in past years. The results will help you decide how hot, cold, wet, or windy it might be!

Date:

Astronomy

Aug. 26, 2014 Rise Set
Actual Time 6:49 AM EDT 7:52 PM EDT
Civil Twilight 6:23 AM EDT 8:18 PM EDT
Nautical Twilight 5:52 AM EDT 8:48 PM EDT
Astronomical Twilight 5:21 AM EDT 9:20 PM EDT
Moon 7:43 AM EDT (8/26) 8:19 PM EDT (8/26)
Length of Visible Light 13h 54m
Length of Day
13h 03m
New Moon, 1% of the Moon is Illuminated
Aug 26
New Moon
Sep 2
First Quarter
Sep 8
Full
Sep 15
Last Quarter
Sep 24
New

Hourly Weather History & Observations

Time (EDT) Temp. Heat Index Dew Point Humidity Pressure Visibility Wind Dir Wind Speed Gust Speed Precip Events Conditions
12:15 AM 77.0 °F - 66.2 °F 69% 30.06 in 10.0 mi NNE 5.8 mph - N/A   Overcast
12:35 AM 75.2 °F - 66.2 °F 73% 30.07 in 10.0 mi NNE 4.6 mph - N/A   Overcast
12:55 AM 75.2 °F - 66.2 °F 73% 30.07 in 10.0 mi NNE 3.5 mph - N/A   Overcast
1:15 AM 73.4 °F - 66.2 °F 78% 30.07 in 10.0 mi NNE 6.9 mph - N/A   Overcast
1:35 AM 73.4 °F - 66.2 °F 78% 30.07 in 10.0 mi NNE 3.5 mph - N/A   Mostly Cloudy
1:55 AM 73.4 °F - 64.4 °F 73% 30.07 in 10.0 mi NNE 5.8 mph - N/A   Scattered Clouds
2:15 AM 73.4 °F - 64.4 °F 73% 30.07 in 10.0 mi NNE 5.8 mph - N/A   Clear
2:35 AM 71.6 °F - 64.4 °F 78% 30.06 in 10.0 mi NNE 4.6 mph - N/A   Clear
2:55 AM 71.6 °F - 64.4 °F 78% 30.07 in 10.0 mi North 4.6 mph - N/A   Clear
3:15 AM 71.6 °F - 64.4 °F 78% 30.06 in 10.0 mi NE 4.6 mph - N/A   Clear
3:35 AM 71.6 °F - 64.4 °F 78% 30.06 in 10.0 mi Calm Calm - N/A   Clear
3:55 AM 69.8 °F - 64.4 °F 83% 30.06 in 10.0 mi Calm Calm - N/A   Clear
4:15 AM 69.8 °F - 64.4 °F 83% 30.06 in 10.0 mi North 4.6 mph - N/A   Clear
4:35 AM 69.8 °F - 64.4 °F 83% 30.06 in 10.0 mi Calm Calm - N/A   Mostly Cloudy
4:55 AM 69.8 °F - 64.4 °F 83% 30.06 in 10.0 mi Calm Calm - N/A   Mostly Cloudy
5:15 AM 69.8 °F - 64.4 °F 83% 30.06 in 10.0 mi Calm Calm - N/A   Clear
5:35 AM 69.8 °F - 64.4 °F 83% 30.06 in 10.0 mi Calm Calm - N/A   Clear
5:55 AM 68.0 °F - 64.4 °F 88% 30.06 in 10.0 mi Calm Calm - N/A   Clear
6:15 AM 68.0 °F - 64.4 °F 88% 30.07 in 10.0 mi Calm Calm - N/A   Clear
6:35 AM 68.0 °F - 64.4 °F 88% 30.08 in 10.0 mi Calm Calm - N/A   Clear
6:55 AM 68.0 °F - 64.4 °F 88% 30.07 in 10.0 mi Calm Calm - N/A   Clear
7:15 AM 68.0 °F - 64.4 °F 88% 30.08 in 10.0 mi Calm Calm - N/A   Clear
7:35 AM 68.0 °F - 64.4 °F 88% 30.08 in 10.0 mi Calm Calm - N/A   Clear
7:55 AM 69.8 °F - 64.4 °F 83% 30.08 in 10.0 mi NNE 5.8 mph - N/A   Clear
8:15 AM 71.6 °F - 64.4 °F 78% 30.09 in 10.0 mi North 3.5 mph - N/A   Clear
8:35 AM 71.6 °F - 64.4 °F 78% 30.09 in 10.0 mi NNE 5.8 mph - N/A   Clear
8:55 AM 71.6 °F - 64.4 °F 78% 30.09 in 10.0 mi NNE 5.8 mph - N/A   Clear
9:15 AM 73.4 °F - 64.4 °F 73% 30.09 in 10.0 mi Calm Calm - N/A   Clear
9:35 AM 75.2 °F - 64.4 °F 69% 30.09 in 10.0 mi NNE 5.8 mph - N/A   Clear
9:55 AM - - - N/A% - - North - - N/A   Unknown
10:15 AM - - - N/A% - - North - - N/A   Unknown
10:35 AM 78.8 °F - 66.2 °F 65% 30.10 in 10.0 mi Calm Calm - 0.27 in   Clear
10:55 AM 78.8 °F - 64.4 °F 61% 30.10 in 10.0 mi NE 5.8 mph - 0.27 in   Clear
11:15 AM 80.6 °F 82.7 °F 66.2 °F 61% 30.10 in 10.0 mi North 3.5 mph - N/A   Clear
11:35 AM 80.6 °F 82.7 °F 66.2 °F 61% 30.10 in 10.0 mi NNE 3.5 mph - N/A   Scattered Clouds
11:55 AM 80.6 °F 82.3 °F 64.4 °F 58% 30.09 in 10.0 mi NNE 6.9 mph - N/A   Scattered Clouds
12:15 PM 80.6 °F 82.7 °F 66.2 °F 61% 30.09 in 10.0 mi NNW 6.9 mph - N/A   Scattered Clouds
12:35 PM 80.6 °F 82.7 °F 66.2 °F 61% 30.09 in 10.0 mi NNW 4.6 mph - N/A   Clear
12:55 PM 82.4 °F 84.6 °F 66.2 °F 58% 30.09 in 10.0 mi NNE 3.5 mph - N/A   Clear
1:15 PM 82.4 °F 83.4 °F 62.6 °F 51% 30.09 in 10.0 mi North 4.6 mph - N/A   Clear
1:35 PM 84.2 °F 84.4 °F 60.8 °F 45% 30.08 in 10.0 mi North 4.6 mph - N/A   Clear
1:55 PM 84.2 °F 85.0 °F 62.6 °F 48% 30.07 in 10.0 mi North 8.1 mph - N/A   Clear
2:15 PM 86.0 °F 86.1 °F 60.8 °F 43% 30.06 in 10.0 mi NNW 6.9 mph - N/A   Clear
2:35 PM 86.0 °F 86.1 °F 60.8 °F 43% 30.06 in 10.0 mi NW 6.9 mph - N/A   Clear
2:55 PM 86.0 °F 86.1 °F 60.8 °F 43% 30.05 in 10.0 mi NE 6.9 mph - N/A   Clear
3:15 PM 86.0 °F 86.1 °F 60.8 °F 43% 30.05 in 10.0 mi North 6.9 mph - N/A   Clear
3:35 PM 86.0 °F 84.5 °F 55.4 °F 35% 30.04 in 10.0 mi NNE 6.9 mph - N/A   Clear
3:55 PM 86.0 °F 84.9 °F 57.2 °F 37% 30.04 in 10.0 mi NNE 6.9 mph - N/A   Clear
4:15 PM 86.0 °F 85.4 °F 59.0 °F 40% 30.04 in 10.0 mi North 3.5 mph - N/A   Clear
4:35 PM 86.0 °F 86.1 °F 60.8 °F 43% 30.03 in 10.0 mi NE 3.5 mph - N/A   Clear
4:55 PM 86.0 °F 86.1 °F 60.8 °F 43% 30.03 in 10.0 mi ENE 8.1 mph - N/A   Clear
5:15 PM 86.0 °F 85.4 °F 59.0 °F 40% 30.03 in 10.0 mi ENE 3.5 mph - N/A   Clear
5:35 PM 86.0 °F 85.4 °F 59.0 °F 40% 30.03 in 10.0 mi NE 5.8 mph - N/A   Clear
5:55 PM 84.2 °F 84.4 °F 60.8 °F 45% 30.03 in 10.0 mi Calm Calm - N/A   Clear
6:15 PM 84.2 °F 85.0 °F 62.6 °F 48% 30.03 in 10.0 mi NE 3.5 mph - N/A   Clear
6:35 PM 82.4 °F 83.4 °F 62.6 °F 51% 30.03 in 10.0 mi NE 4.6 mph - N/A   Clear
6:55 PM 82.4 °F 83.4 °F 62.6 °F 51% 30.03 in 10.0 mi NE 4.6 mph - N/A   Clear
7:15 PM 80.6 °F 81.8 °F 62.6 °F 54% 30.03 in 10.0 mi Calm Calm - N/A   Clear
7:35 PM 78.8 °F - 64.4 °F 61% 30.03 in 10.0 mi Calm Calm - N/A   Clear
7:55 PM 77.0 °F - 64.4 °F 65% 30.04 in 10.0 mi Calm Calm - N/A   Clear
8:15 PM 73.4 °F - 64.4 °F 73% 30.03 in 10.0 mi Calm Calm - N/A   Clear
8:35 PM 71.6 °F - 64.4 °F 78% 30.04 in 10.0 mi Calm Calm - N/A   Clear
8:55 PM 71.6 °F - 64.4 °F 78% 30.04 in 10.0 mi Calm Calm - N/A   Clear
9:15 PM 69.8 °F - 64.4 °F 83% 30.04 in 10.0 mi Calm Calm - N/A   Clear
9:35 PM 69.8 °F - 64.4 °F 83% 30.05 in 10.0 mi Calm Calm - N/A   Clear
9:55 PM 69.8 °F - 64.4 °F 83% 30.05 in 10.0 mi Calm Calm - N/A   Clear
10:15 PM 69.8 °F - 64.4 °F 83% 30.05 in 10.0 mi Calm Calm - N/A   Clear
10:35 PM 69.8 °F - 64.4 °F 83% 30.05 in 10.0 mi Calm Calm - N/A   Clear
10:55 PM 69.8 °F - 64.4 °F 83% 30.05 in 10.0 mi Calm Calm - N/A   Clear
11:15 PM 68.0 °F - 64.4 °F 88% 30.05 in 10.0 mi Calm Calm - N/A   Clear
11:35 PM 68.0 °F - 64.4 °F 88% 30.05 in 10.0 mi Calm Calm - N/A   Clear
11:55 PM 68.0 °F - 64.4 °F 88% 30.05 in 10.0 mi Calm Calm - N/A   Clear